Regional Weather Roundup
Issued by NWS Jackson, KY

Home | Current Version | Previous Version | Text Only | Print | Product List | Glossary Off
Versions: 1 2 3 4 5 6 7 8 9 10 11 12 13 14 15 16 17 18 19 20 21 22 23 24 25 26 27 28 29 30 31 32 33 34 35 36 37 38 39 40 41 42 43 44 45 46 47 48 49 50

000
ASUS43 KJKL 040510
RWRJKL

EAST KENTUCKY HOURLY WEATHER ROUNDUP
NATIONAL WEATHER SERVICE JACKSON KY
100 AM EDT FRI SEP 04 2015

NOTE: "FAIR" INDICATES FEW OR NO CLOUDS BELOW 12,000 FEET WITH
NO SIGNIFICANT WEATHER AND/OR OBSTRUCTIONS TO VISIBILITY.

* THESE REPORTS ARE NOT UNDER NWS QUALITY CONTROL AND MAY NOT
  REPORT WEATHER SUCH AS PRECIPITATION AND FOG.

KYZ079-080-083-085-087-088-110-112-115-119-120-040600
...EASTERN KENTUCKY...

CITY           SKY/WX    TMP DP  RH WIND       PRES   REMARKS
JACKSON        CLEAR     74  65  73 CALM      30.02S
LONDON         CLEAR     71  65  81 CALM      30.02S HAZE
SOMERSET*      CLEAR     68  68 100 CALM      30.02S FOG
MONTICELLO*    CLEAR     67  67 100 CALM      30.03S FOG
MIDDLESBORO*   CLEAR     67  66  97 CALM      30.03S
HARLAN APT*      N/A     68  66  94 MISG      30.05S
HAZARD APT*    CLEAR     68  68 100 CALM      30.02S FOG
BLACK MTN*       N/A     66  64  94 N1          N/A
PIKEVILLE APT* CLEAR     72  68  88 S3        30.03S
BIG SANDY*     CLEAR     70  68  93 CALM      30.02S
MOREHEAD APT*  PTCLDY    72  70  94 CALM      30.02S FOG
$$

KYZ035-036-041-042-044-050-067-078-099-040600
...CENTRAL KENTUCKY...

CITY           SKY/WX    TMP DP  RH WIND       PRES   REMARKS
MT STERLING*   CLEAR     68  68 100 CALM      30.02S
FLEMING/MASON* CLEAR     72  68  88 CALM      30.01R
DANVILLE*      CLEAR     68  64  88 CALM      30.02S
RICHMOND*      CLEAR     72  66  83 CALM      30.00S
LEXINGTON      CLEAR     73  66  78 CALM      30.00S
FRANKFORT      CLEAR     70  66  87 CALM      29.98S
$$

KYZ091>093-OHZ055-061-077-WVZ005-015-034-035-042-040600
...SOUTHERN OHIO/WEST VIRGINIA...

CITY           SKY/WX    TMP DP  RH WIND       PRES   REMARKS
COVINGTON      CLEAR     71  67  87 CALM      29.98S
COLUMBUS       PTCLDY    68  66  93 E5        29.97F
DAYTON         PTCLDY    75  68  78 SW6       29.98F
WILMINGTON     CLEAR     70  67  90 E3        29.98S
HUNTINGTON     CLEAR     68  67  96 CALM      29.99S
CHARLESTON     CLEAR     70  68  93 CALM      30.00R FOG
PINEVILLE*       N/A     66  66 100 MISG      30.10S FOG
BECKLEY        PTCLDY    67  63  87 CALM      30.08S
BLUEFIELD      MOCLDY    71  63  75 W5        30.10S
$$

VAZ002-007-008-TNZ017-027-036-066-071-040600
...SOUTHWEST VIRGINIA/EAST TENNESSEE...

CITY           SKY/WX    TMP DP  RH WIND       PRES   REMARKS
WISE*          CLEAR     64  63  94 SW3       30.11S FOG
JONESVILLE*    CLEAR     66  64  94 CALM      30.05S
ABINGDON*      CLEAR     68  64  86 CALM      30.06F
BRISTOL        PTCLDY    67  65  93 CALM      30.03S
KNOXVILLE      CLEAR     73  69  87 CALM      29.98S
OAK RIDGE      CLEAR     73  67  81 CALM      30.00S
CROSSVILLE     CLEAR     69  65  86 CALM      30.06S FOG
NASHVILLE      PTCLDY    78  67  68 N3        29.98S
$$

...KEY TO REMARKS...
VSB - VISIBILITY IN MILES
WCI - WIND CHILL INDEX
HX  - HEAT INDEX

$$



USA.gov is the U.S. government's official web portal to all federal, state and local government web resources and services.